Terminal Aerodrome Forecast
Issued by NWS

Home | Current Version | Previous Version | Text Only | Print | Product List | Glossary On
Versions: 1 2 3 4 5 6 7 8 9 10 11 12 13 14 15 16 17 18 19 20 21 22 23 24 25 26 27 28 29 30 31 32 33 34 35 36 37 38 39 40 41 42 43 44 45 46 47 48 49 50
000
FTAK31 PANC 040527
TAFASN
TAF
PASN 040527Z 0406/0506 19006KT 1/2SM FG VV002
      TEMPO 0406/0410 1SM BR VV003
     FM041000 21006KT 1SM BR BKN003 OVC006
     FM041800 26010KT 5SM BR SCT003 OVC006
     FM050400 21004KT 3SM BR BKN005 OVC008=

USA.gov is the U.S. government's official web portal to all federal, state and local government web resources and services.